User: anonymous   Login
Location: Caltech
(34.1382°N, 118.1253°W)
Time: 04:38:15
(UTC-07:00)
Language:

NOAA 19 - Orbit

View from above orbital plane
View from above orbital plane
View from above satellite
View from above satellite

Ground track
Ground track

The orbit data is extracted from the following two-line orbital elements,

1 33591U 09005A   17082.89247420 +.00000126 +00000-0 +93496-4 0  9993
2 33591 099.0828 048.5519 0014439 148.4566 211.7473 14.12163748418359
Epoch (UTC): 23 March 2017 21:25:09
Eccentricity: 0.0014439
inclination: 99.0828°
perigee height: 841 km
apogee height: 862 km
right ascension of ascending node: 48.5519°
argument of perigee: 148.4566°
revolutions per day: 14.12163748
mean anomaly at epoch: 211.7473°
orbit number at epoch: 41835

The dashed part of the orbit path shows where the satellite is in the earth's shadow,  

DLR